Flag for Lithuania Weather past 2 weeks in Vilnius, Lithuania

Now
45 °F

Fog.


Feels Like: 41 °F
Forecast: 51 / 67 °F
Wind: 6 mph from South

Location: Vilnius Airport

Current Time: Aug 22, 2014 at 7:33:23 AM

Latest Report: Aug 22, 2014 at 6:50 AM


Visibility: 0 mi

Pressure: 29.98 "Hg

Humidity: 100%

Dew point: 45 °F

Location of VilniusLocation

Historic Weather in Vilnius — Graph

°F

Vilnius temperature yesterday

Maximum temperature yesterday: 64 °F (at 11:50 AM)
Minimum temperature yesterday: 43 °F (at 5:20 AM)
Average temperature yesterday: 53 °F

Past Weeks' High & Low Weather Summary

 TemperatureHumidityPressure
High88 °F (Aug 11, 3:50 PM)100% (Aug 9, 11:58 PM)30.01 "Hg (Aug 9, 11:58 PM)
Low43 °F (Aug 21, 5:20 AM)31% (Aug 11, 4:50 PM)29.56 "Hg (Aug 14, 8:20 AM)
Average64 °F73%29.85 "Hg
* Reported Aug 7 6:20 AM — Aug 22 6:20 AM, Vilnius, Weather by CustomWeather, © 2014

Note: Actual official high and low records may vary slightly from our data, if they occured in-between our weather recording intervals... More about our weather records

Advertising

Vilnius weather history for previous 24 hours

 ConditionsComfort  
Time TempWeatherWind HumidityBarometerVisibility
6:20 AM
Aug 22
45 °FFog.5 mph100%29.98 "Hg0 mi
5:20 AM45 °FFog.5 mph100%29.95 "Hg0 mi
4:50 AM43 °FFog.3 mph100%29.95 "Hg0 mi
4:20 AM45 °FFog.5 mph100%29.95 "Hg0 mi
3:50 AM45 °FFog.5 mph100%29.95 "Hg1 mi
3:20 AM46 °FFog.2 mph93%29.95 "Hg1 mi
2:50 AM50 °FClear.7 mph94%29.95 "Hg4 mi
2:20 AM50 °FClear.5 mph94%29.95 "Hg4 mi
1:50 AM50 °FClear.7 mph94%29.95 "Hg4 mi
1:20 AM50 °FClear.6 mph94%29.95 "Hg10 mi
12:50 AM50 °FMostly cloudy.6 mph94%29.95 "HgN/A
12:20 AM50 °FMostly cloudy.5 mph88%29.95 "HgN/A
11:50 PM
Aug 21
50 °FLight rain. Mostly cloudy.5 mph94%29.92 "Hg4 mi
11:20 PM50 °FMostly cloudy.3 mph94%29.95 "HgN/A
10:50 PM50 °FMostly cloudy.3 mph94%29.95 "HgN/A
10:20 PM52 °FMostly cloudy.6 mph88%29.95 "HgN/A
9:50 PM50 °FMostly cloudy.5 mph100%29.95 "HgN/A
9:20 PM50 °FMostly cloudy.3 mph94%29.95 "HgN/A
8:50 PM52 °FMostly cloudy.2 mph88%29.95 "HgN/A
8:20 PM52 °FSprinkles. Mostly cloudy.3 mph88%29.95 "Hg4 mi
7:50 PM52 °FSprinkles. Mostly cloudy.1 mph94%29.95 "Hg4 mi
7:20 PM52 °FSprinkles. Mostly cloudy.1 mph94%29.95 "Hg4 mi
6:50 PM52 °FSprinkles. Mostly cloudy.3 mph94%29.95 "Hg2 mi
6:20 PM54 °FSprinkles. Mostly cloudy.6 mph88%29.95 "Hg2 mi
5:50 PM54 °FSprinkles. Mostly cloudy.7 mph88%29.95 "Hg2 mi
5:20 PM54 °FSprinkles. Mostly cloudy.8 mph88%29.95 "Hg4 mi
4:50 PM54 °FSprinkles. Mostly cloudy.10 mph88%29.98 "Hg2 mi
4:20 PM55 °FRain showers. Mostly cloudy.16 mph82%29.98 "Hg2 mi
3:50 PM61 °FScattered showers. More clouds than sun.8 mph59%29.98 "HgN/A
3:20 PM63 °FMore clouds than sun.7 mph52%29.98 "HgN/A
2:50 PM63 °FMore clouds than sun.8 mph52%29.98 "HgN/A
2:20 PM63 °FMore clouds than sun.8 mph49%29.98 "HgN/A
1:50 PM63 °FMore clouds than sun.9 mph49%29.98 "HgN/A
1:20 PM63 °FBroken clouds.8 mph52%29.98 "HgN/A
12:50 PM63 °FBroken clouds.9 mph49%29.98 "HgN/A
12:20 PM64 °FBroken clouds.8 mph49%29.98 "HgN/A
11:50 AM64 °FBroken clouds.9 mph49%29.98 "HgN/A
11:20 AM63 °FBroken clouds.10 mph52%29.98 "HgN/A
10:50 AM63 °FSunny.9 mph56%29.98 "Hg10 mi
10:20 AM61 °FPassing clouds.8 mph63%29.98 "HgN/A
9:50 AM59 °FSunny.9 mph68%30.01 "Hg10 mi
9:20 AM57 °FPassing clouds.6 mph67%29.98 "HgN/A
8:50 AM54 °FSunny.6 mph77%29.98 "Hg10 mi
8:20 AM50 °FSunny.6 mph88%29.98 "Hg10 mi
7:50 AM48 °FSunny.5 mph87%29.98 "Hg10 mi
7:20 AM45 °FSunny.6 mph93%29.98 "Hg10 mi
Weather by CustomWeather, © 2014

See weather overviewHow to use our weather pages